sat.trackr.live / text

‹ back to catalog

STARLINK-36887

NORAD 67950 · 2026-037U

PAYLOAD ACTIVE UNKNOWN

§ Identity

Operator
Country
US
Launch date
2026-02-24
Launch site
AFETR
Launch vehicle
Mass (kg)
RCS (m²)

Purposes: comms

External: N2YO · Heavens-Above · Gunter

§ Orbital elements

Epoch: 2026-09-19T11:29:01.162752Z

Period
94.27 min
Inclination
43.0008°
Eccentricity
0.0000606
Mean motion
15.27597812 rev/d
Perigee alt
482.6 km
Apogee alt
483.4 km
Semi-major
6,861.1 km
B*
1.2455e-4
RAAN
176.7134°
Arg perigee
302.7600°
Mean anomaly
57.3194°
Rev number
3,297

§ Raw data

STARLINK-368871 67950U 26037U   26262.47848568  .00003169  00000+0  12455-3 0  99912 67950  43.0008 176.7134 0000606 302.7600  57.3194 15.27597812 32970

JSON: /api/v1/satellites/67950 · /tle

For live sub-satellite position, see the globe view (requires WebGL).

§ Visibility from observer

Set your observer location to see the next 7 days of passes ≥ 10°. The values pass through the URL so the page stays shareable.

No JS? Fill the form by hand. The geolocation button needs JavaScript.